Home   Weather   Chiclayo   Past weeks

Flag for Peru Past Weather in Chiclayo, Lambayeque, Peru — Yesterday and Last 2 Weeks

Now
86 °F

Sunny.


Feels Like: 89 °F
Forecast: 72 / 82 °F
Wind: 15 mph from Southwest

Location: Chiclayo Airport

Current Time: Jan 20, 2017 at 3:10:31 pm

Latest Report: Jan 20, 2017 at 2:00 pm


Visibility: 10 mi

Pressure: 29.86 "Hg

Humidity: 55%

Dew Point: 68 °F

Location of ChiclayoLocation

Past Weather in Chiclayo — Graph

°F

Chiclayo Temperature Yesterday

Maximum temperature yesterday: 84 °F (at 1:00 pm)
Minimum temperature yesterday: 70 °F (at 6:30 am)
Average temperature yesterday: 76 °F

High & Low Weather Summary for the Past Weeks

 TemperatureHumidityPressure
High88 °F (Jan 10, 12:00 pm)100% (Jan 8, 12:00 am)29.95 "Hg (Jan 8, 12:00 am)
Low66 °F (Jan 12, 7:00 am)46% (Jan 20, 1:00 pm)29.74 "Hg (Jan 11, 4:00 pm)
Average77 °F78%29.86 "Hg
* Reported Jan 5 1:00 pm — Jan 20 1:00 pm, Chiclayo, Weather by CustomWeather, © 2017

Note: Actual official high and low records may vary slightly from our data, if they occured in-between our weather recording intervals... More about our weather records

Advertising

Chiclayo Weather History for the Previous 24 Hours

Scroll right to see more
 ConditionsComfort  
Time TempWeatherWind HumidityBarometerVisibility
1:00 pm
Fri, Jan 20
88 °FSunny.13 mph46%29.89 "Hg10 mi
12:00 pm88 °FPassing clouds.7 mph49%29.89 "HgN/A
11:00 am86 °FPassing clouds.7 mph49%29.92 "HgN/A
10:00 am82 °FSunny.2 mph62%29.95 "Hg10 mi
9:00 am79 °FPassing clouds.6 mph70%29.95 "HgN/A
8:00 am75 °FSunny.7 mph94%29.92 "Hg10 mi
7:00 am73 °FSunny.2 mph94%29.92 "Hg10 mi
6:00 am73 °FClear.9 mph94%29.89 "Hg10 mi
5:00 am73 °FClear.9 mph94%29.86 "Hg10 mi
4:00 am73 °FClear.9 mph94%29.86 "Hg10 mi
3:00 am73 °FClear.10 mph94%29.89 "Hg10 mi
2:00 am73 °FClear.10 mph100%29.89 "Hg10 mi
1:00 am73 °FClear.13 mph100%29.92 "Hg10 mi
12:00 am73 °FClear.12 mph100%29.92 "Hg10 mi
11:00 pm
Thu, Jan 19
75 °FClear.13 mph94%29.92 "Hg10 mi
10:00 pm75 °FClear.13 mph89%29.92 "Hg10 mi
9:00 pm75 °FClear.12 mph89%29.89 "Hg10 mi
8:00 pm77 °FClear.14 mph83%29.86 "Hg10 mi
7:00 pm77 °FClear.14 mph79%29.83 "Hg10 mi
6:00 pm81 °FSunny.16 mph70%29.83 "Hg10 mi
5:00 pm82 °FSunny.21 mph66%29.80 "Hg10 mi
4:00 pm82 °FSunny.18 mph66%29.80 "Hg10 mi
3:00 pm84 °FSunny.16 mph58%29.80 "Hg10 mi
Weather by CustomWeather, © 2017

See weather overviewHow to use our weather pages